This is the latest recevied weather packets stored in our database for station/object KB3FKJ. If no packets are shown the sender has not sent any weather packets the latest 1 day(s).
| Time | Temp. | Humidity | Pressure | Rain* | Wind** | Luminosity | Snow |
|---|---|---|---|---|---|---|---|
| 1778040482 | 16.11° C | 65% | 1007.5 hPa | 0 mm | 0 m/s | 0 W/m² | - |
| 1778040179 | 15.56° C | 67% | 1007.5 hPa | 0 mm | 0 m/s | 0 W/m² | - |
| 1778039876 | 15.56° C | 70% | 1007.4 hPa | 0 mm | 0 m/s | 0 W/m² | - |
| 1778039573 | 15° C | 71% | 1007.6 hPa | 0 mm | 0 m/s | 0 W/m² | - |
| 1778039270 | 15° C | 74% | 1007.5 hPa | 0 mm | 0 m/s | 0 W/m² | - |
| 1778038967 | 15° C | 75% | 1007.4 hPa | 0 mm | 0 m/s | 0 W/m² | - |
| 1778038664 | 15° C | 69% | 1007.3 hPa | 0 mm | 0 m/s | 0 W/m² | - |
| 1778038361 | 15° C | 71% | 1007.4 hPa | 0 mm | 0 m/s | 0 W/m² | - |
| 1778038058 | 15° C | 76% | 1007.3 hPa | 0 mm | 0 m/s | 0 W/m² | - |
| 1778037755 | 15° C | 76% | 1007.3 hPa | 0 mm | 0 m/s | 0 W/m² | - |
| 1778037452 | 15° C | 74% | 1007.5 hPa | 0 mm | 0 m/s | 0 W/m² | - |
| 1778037149 | 15° C | 74% | 1007.2 hPa | 0 mm | 0 m/s | 0 W/m² | - |
| 1778036847 | 15° C | 76% | 1007.4 hPa | 0 mm | 0 m/s | 0 W/m² | - |
| 1778036545 | 15° C | 76% | 1007.5 hPa | 0 mm | 0 m/s | 0 W/m² | - |
| 1778036241 | 15° C | 76% | 1007.6 hPa | 0 mm | 0 m/s | 0 W/m² | - |
| 1778035937 | 15.56° C | 76% | 1007.6 hPa | 0 mm | 0 m/s | 0 W/m² | - |
| 1778035635 | 15.56° C | 72% | 1007.4 hPa | 0 mm | 0 m/s | 0 W/m² | - |
| 1778035331 | 15.56° C | 73% | 1007.5 hPa | 0 mm | 0 m/s | 0 W/m² | - |
| 1778035027 | 15.56° C | 74% | 1007.8 hPa | 0 mm | 0 m/s | 0 W/m² | - |
| 1778034725 | 16.11° C | 72% | 1007.8 hPa | 0 mm | 0 m/s | 0 W/m² | - |
| 1778034422 | 16.11° C | 68% | 1007.6 hPa | 0 mm | 0 m/s | 0 W/m² | - |
| 1778034119 | 16.11° C | 69% | 1007.8 hPa | 0 mm | 0 m/s | 0 W/m² | - |
| 1778033817 | 16.11° C | 69% | 1007.7 hPa | 0 mm | 0 m/s | 0 W/m² | - |
| 1778033514 | 16.67° C | 70% | 1007.6 hPa | 0 mm | 0 m/s | 0 W/m² | - |
| 1778033211 | 16.67° C | 67% | 1007.7 hPa | 0 mm | 0 m/s | 0 W/m² | - |
* Rain latest hour (hover to see other rain measurements)
** Current wind speed in m/s (hover to see current wind gust speed)